GFSNGP_925_spd_000.txt.gz
Wind_Speed
21 21 19 24 28 28 31 32 29 23 29 24 22 20 18 19 17 12 12 14 18 20 18 17 24 27 28 29 27 27 26 25 25 22 23 26 30 38 40 38 41 37 37 26
17 22 24 22 26 27 26 27 31 33 31 24 26 23 24 22 21 15 16 16 19 19 19 20 24 25 24 23 23 21 21 22 20 22 25 32 31 36 41 48 46 40 34 25
16 15 20 24 27 27 29 27 24 25 28 30 27 22 25 23 20 18 18 18 20 20 17 17 22 22 21 20 20 21 21 22 24 25 29 30 29 33 39 37 35 29 21 18
12 1 13 15 19 23 26 28 24 20 17 24 21 16 18 19 13 18 16 15 15 16 15 19 20 21 20 20 21 22 22 23 24 26 27 29 29 32 33 31 27 22 16 19
11 14 11 18 8 17 22 25 28 21 20 12 9 11 13 9 9 13 12 12 14 17 20 23 23 23 23 22 22 23 22 24 25 27 25 24 27 29 31 30 28 25 19 19
8 14 18 3 12 15 14 15 23 25 17 21 12 12 13 6 7 10 13 14 15 23 24 25 25 26 25 24 24 24 25 26 27 26 26 27 25 23 25 25 25 23 19 21
10 10 8 11 13 6 9 8 21 17 19 17 16 3 7 10 8 10 14 16 25 25 23 24 25 25 22 22 21 22 23 25 26 27 26 25 24 22 19 18 18 18 20 24
7 9 15 9 2 1 14 14 7 10 13 13 14 15 14 15 16 18 20 19 24 23 22 20 20 20 19 17 17 18 20 21 22 22 20 20 22 21 20 19 18 16 19 19
11 8 5 6 1 1 7 4 8 12 17 19 23 20 20 18 17 18 19 15 21 19 18 16 14 13 14 14 16 18 19 20 19 18 17 17 19 17 17 17 17 16 18 19
9 5 9 9 6 8 6 6 15 12 17 17 18 20 18 14 14 14 13 12 16 15 13 12 11 13 14 14 15 17 18 17 16 17 17 17 17 15 14 15 14 16 18 11
5 6 13 13 10 7 4 7 13 14 15 15 14 17 19 13 13 12 12 11 10 9 10 10 11 11 12 12 14 15 15 17 18 16 16 13 9 9 12 5 5 8 8 9
6 9 9 9 9 3 10 12 13 16 18 17 18 17 16 14 13 8 10 10 7 8 9 9 11 12 13 14 16 17 15 13 13 13 13 12 9 5 8 4 7 6 7 6
4 9 15 15 8 9 10 13 13 16 16 15 15 15 15 12 9 9 12 9 5 5 6 9 11 14 13 13 12 14 13 13 13 11 12 12 12 13 12 5 5 6 6 9
16 14 13 11 8 12 9 12 14 15 13 12 12 12 10 8 8 10 10 8 4 3 5 8 11 13 14 13 12 10 10 10 10 11 12 10 9 11 11 11 9 6 5 7
14 16 12 15 10 6 7 8 13 9 6 7 10 10 9 7 6 6 5 4 2 1 2 6 10 12 11 11 10 7 7 11 11 12 10 7 9 10 11 9 9 11 10 10
11 13 10 12 11 7 8 8 9 6 5 8 8 8 8 6 5 3 2 3 2 1 1 4 9 12 13 12 13 12 9 12 10 6 6 8 8 9 8 9 9 12 15 14
10 10 11 7 7 8 11 9 7 6 6 8 9 11 10 8 6 5 5 3 1 0 0 5 10 13 14 14 11 9 10 12 13 12 11 9 7 7 7 8 10 10 10 8
7 6 6 4 6 6 7 6 4 6 7 6 6 6 7 6 6 7 6 5 5 6 5 6 11 13 14 14 10 10 13 14 12 8 7 7 6 5 6 9 9 9 8 9
8 3 3 3 5 3 2 3 5 4 5 7 6 6 9 10 9 8 7 7 6 6 6 7 11 10 12 13 15 13 12 11 10 6 6 4 6 9 10 11 9 6 9 10
6 5 5 6 6 5 3 5 2 3 4 4 3 7 8 9 8 6 7 11 9 8 9 10 9 9 11 11 10 7 8 7 5 5 5 7 9 10 9 5 8 9 10 11
6 5 5 7 8 7 6 4 5 6 6 7 7 7 7 8 8 6 3 7 8 5 9 8 8 10 10 10 8 8 6 5 4 4 5 8 7 10 10 10 9 11 12 11
3 4 5 6 6 8 7 7 7 7 7 7 7 7 5 6 5 8 9 9 9 6 7 9 10 6 10 8 5 5 4 4 3 4 4 5 7 7 8 8 9 9 8 8
5 5 6 8 6 4 6 8 8 6 7 6 6 6 6 7 7 6 5 7 5 3 3 6 8 9 8 3 4 5 5 4 3 3 4 6 8 9 10 10 10 9 9 9
5 4 5 4 6 5 6 8 9 7 6 4 5 5 8 9 4 6 3 3 3 3 1 8 9 9 6 3 4 4 4 4 5 5 4 4 8 7 9 11 12 13 12 10
8 5 7 7 6 6 6 7 3 6 5 0 0 1 1 4 6 7 5 3 1 3 5 5 7 8 8 9 8 8 8 8 8 8 9 8 9 10 10 10 11 12 11 12
12 10 10 11 10 10 10 10 10 9 10 9 9 8 8 8 6 6 4 2 4 4 7 6 10 13 14 14 13 12 12 12 10 12 11 12 10 10 12 13 13 12 13 13
14 16 13 12 13 13 12 10 11 11 10 11 13 12 11 10 10 10 8 10 11 11 10 11 12 13 13 15 14 14 14 14 14 14 13 13 12 12 12 12 13 13 13 13

GFSNGP_925_spd_003.txt.gz
Wind_Speed
25 24 19 23 29 30 33 30 28 24 30 26 25 22 19 19 16 18 15 12 13 17 17 18 25 32 34 32 33 33 31 32 31 31 32 33 36 38 38 37 39 35 31 27
20 23 24 24 22 30 29 32 33 33 31 25 26 24 18 19 18 18 18 14 14 16 18 18 22 26 32 33 30 32 32 32 32 32 32 34 34 35 32 32 28 24 24 24
20 21 18 23 27 25 24 27 27 29 30 27 29 26 24 25 21 21 22 21 15 17 19 19 26 26 27 30 30 29 27 29 26 31 32 32 32 31 33 32 26 25 30 25
17 16 21 16 19 26 27 26 26 27 24 24 25 27 26 22 20 23 22 24 15 15 18 24 29 29 28 30 29 29 27 26 28 30 29 28 29 31 30 30 32 28 25 23
16 18 10 16 3 3 11 17 22 25 25 29 20 21 27 29 26 21 19 18 12 17 24 24 28 29 28 28 27 25 26 25 27 28 29 27 27 26 26 28 29 27 24 21
14 23 24 17 11 7 6 14 15 17 16 27 18 17 11 17 15 15 15 16 12 20 26 25 25 31 29 30 29 27 28 28 28 28 27 25 24 22 19 19 21 20 20 21
18 17 16 6 5 4 8 9 15 14 18 24 21 17 4 5 4 12 14 12 15 19 19 23 24 29 24 25 26 27 26 26 26 25 24 21 19 17 15 13 14 19 21 20
18 22 23 7 7 6 8 13 14 13 15 21 20 2 3 3 8 10 12 15 22 17 20 23 24 25 22 20 23 24 25 26 25 24 22 20 18 16 14 15 15 16 18 16
18 14 9 9 11 6 7 8 8 6 6 4 4 6 6 8 10 11 14 15 22 21 22 22 22 21 18 18 22 23 24 23 23 21 19 20 18 17 14 13 13 15 15 13
11 12 10 11 11 9 10 4 7 9 10 12 14 15 15 14 15 17 17 17 23 20 17 16 16 16 16 17 19 20 20 22 22 21 18 18 16 16 15 15 15 12 10 9
16 15 16 14 13 10 9 10 14 16 19 13 12 12 14 11 12 13 12 17 20 17 16 16 16 15 13 14 17 18 19 20 22 20 19 17 12 10 14 8 9 9 9 10
8 17 16 14 12 13 14 13 12 12 13 9 12 12 14 11 11 10 11 17 17 17 17 15 15 14 13 13 15 20 20 20 18 19 17 20 15 9 7 5 5 4 5 3
13 19 21 18 18 17 14 12 14 13 11 9 10 11 11 12 12 15 13 15 15 15 14 14 14 15 13 15 16 17 18 18 18 18 21 18 17 17 14 5 5 3 3 7
16 17 14 10 8 12 13 13 11 10 11 13 13 13 11 9 10 11 8 11 12 11 10 14 11 13 18 16 16 14 14 17 18 18 17 17 16 13 13 13 10 6 3 6
17 17 16 14 14 13 13 15 12 13 13 13 15 13 12 9 9 7 7 9 5 5 8 11 13 13 12 14 13 15 15 13 15 13 14 11 10 10 10 10 8 17 10 7
16 19 19 18 15 12 13 10 14 8 10 12 11 11 10 8 8 4 5 5 5 3 2 5 13 12 11 13 13 12 8 14 12 14 10 9 10 10 9 7 7 19 11 8
9 11 13 15 11 6 8 8 3 8 7 5 8 12 6 8 7 8 7 4 3 1 4 4 8 11 11 13 14 13 12 14 8 10 10 11 9 8 7 8 7 7 10 18
9 7 8 9 4 5 2 3 7 4 3 3 3 3 6 6 6 6 3 0 4 2 2 2 7 11 14 14 12 12 13 14 14 13 12 7 7 4 4 5 7 5 15 18
6 8 4 6 7 4 5 4 3 4 1 3 3 4 5 5 3 4 7 7 5 4 2 3 8 12 11 10 10 12 14 13 11 9 9 7 8 7 7 9 9 3 11 8
4 1 2 2 8 9 6 4 7 5 5 8 4 6 6 5 6 6 7 8 7 5 2 6 7 7 7 9 5 9 8 11 9 9 8 9 10 10 6 3 8 4 3 4
8 8 6 6 9 9 9 9 7 8 4 5 6 7 7 6 7 16 6 3 4 5 7 5 7 8 8 7 4 5 9 6 8 8 12 11 11 11 12 10 6 5 11 13
7 7 7 7 8 9 10 8 7 7 7 7 7 7 8 4 8 6 8 8 6 3 6 5 11 7 8 6 6 10 13 6 5 4 7 7 8 9 9 7 13 15 10 9
5 9 10 8 6 8 9 8 10 10 6 4 7 8 8 8 5 7 5 6 4 6 10 9 9 6 2 5 4 3 3 2 4 5 5 6 7 8 9 9 9 9 9 9
8 6 2 2 9 10 7 6 3 6 3 5 5 4 6 9 5 7 8 6 4 5 6 7 6 2 4 11 5 4 4 3 5 8 6 3 8 10 8 8 10 12 13 9
5 7 8 12 4 3 5 3 8 4 3 7 7 8 5 4 2 6 6 4 5 2 1 1 5 5 7 12 14 8 10 10 11 9 8 9 9 10 9 9 9 10 10 11
14 11 12 12 13 15 16 17 13 11 12 14 14 15 11 9 6 7 2 4 3 5 8 15 12 11 10 12 15 12 13 16 8 11 11 10 12 13 9 10 12 11 12 12
15 19 13 14 15 15 14 14 13 15 15 10 13 17 14 12 12 11 10 12 13 10 9 8 6 11 15 13 13 15 16 15 11 12 11 12 12 13 13 12 11 11 12 12

GFSNGP_925_spd_006.txt.gz
Wind_Speed
28 29 25 25 29 29 27 26 22 21 27 18 22 15 18 14 8 8 5 9 8 8 11 19 24 35 38 37 40 40 40 39 39 39 39 37 36 38 35 33 32 28 26 27
24 25 27 24 27 28 29 29 27 26 25 21 20 21 8 15 11 13 11 9 13 13 9 12 20 32 37 39 41 39 39 40 39 39 37 36 36 33 30 28 27 23 25 27
21 25 23 24 26 22 23 24 25 22 23 17 19 15 14 9 11 15 13 12 7 12 13 11 22 35 37 40 39 39 36 39 38 37 37 37 34 31 30 29 23 24 26 32
17 19 24 17 19 24 23 18 20 23 21 18 19 18 16 15 11 11 14 17 12 12 12 17 21 31 34 34 35 38 31 35 35 34 35 33 31 29 26 24 24 21 23 27
15 17 15 19 18 12 9 13 16 17 17 18 17 17 17 17 16 15 17 12 13 16 15 23 23 27 31 35 36 29 34 34 33 31 30 29 27 24 22 20 18 21 24 24
13 17 23 20 7 6 4 9 10 11 11 13 13 15 13 14 16 19 21 16 7 9 19 24 25 27 28 28 33 33 31 30 29 31 30 26 24 20 18 17 19 20 23 23
12 14 15 7 4 5 10 2 7 8 8 10 10 9 15 5 7 15 13 11 5 7 11 23 27 28 25 27 27 31 25 26 24 25 24 23 22 18 16 15 13 16 17 16
11 11 15 14 17 18 4 3 5 8 9 11 9 12 11 4 3 7 7 3 3 5 10 20 24 25 20 17 19 22 24 23 23 23 22 19 15 15 16 13 13 13 15 16
12 11 9 7 10 6 7 6 13 13 13 12 12 8 4 2 1 3 2 4 7 11 10 12 17 23 19 21 24 24 25 23 22 23 21 20 19 20 16 14 14 14 14 14
15 13 4 11 9 8 11 19 18 20 21 25 12 3 6 5 6 6 7 9 15 15 10 13 22 22 23 24 25 25 24 23 23 22 19 20 19 19 16 16 13 14 14 14
14 15 14 12 10 11 17 17 18 19 21 20 20 21 17 15 15 13 13 15 17 13 13 16 21 23 22 22 23 24 23 21 21 20 20 19 17 14 12 10 12 9 9 12
1 11 13 12 10 14 17 18 18 19 19 15 16 16 17 15 13 11 11 16 15 15 15 17 19 17 19 23 23 22 21 20 21 21 21 17 17 13 9 8 8 7 6 9
5 5 21 20 18 19 19 18 18 18 15 15 8 4 13 4 6 12 13 12 13 13 14 16 16 14 14 18 23 22 21 20 23 23 20 18 16 17 13 9 7 7 6 6
12 8 12 17 12 16 18 19 19 16 16 15 14 13 15 8 5 10 10 10 12 12 14 17 18 15 15 20 24 21 19 24 21 22 19 20 19 18 19 18 14 10 9 8
8 13 13 16 16 17 17 17 19 17 17 16 15 10 8 8 7 7 12 8 4 12 13 13 17 16 16 17 19 19 22 19 20 20 24 22 22 22 20 20 18 17 14 13
12 13 14 15 15 16 14 14 15 15 15 12 11 12 11 13 12 13 14 13 11 7 8 16 18 19 19 15 14 14 15 13 12 23 23 18 17 10 11 17 24 20 18 16
17 15 14 14 12 11 10 8 9 10 10 12 12 15 17 17 12 13 17 10 12 11 13 12 10 12 14 14 10 10 10 10 5 21 12 13 11 10 11 10 16 18 18 20
10 12 10 9 7 6 5 5 7 0 2 4 9 9 7 6 6 9 8 6 6 12 16 15 6 7 12 7 9 10 16 12 7 11 14 11 9 7 3 2 11 13 12 21
7 4 5 6 10 8 6 6 7 13 17 13 6 4 11 10 12 12 12 13 11 8 11 9 4 3 3 1 4 5 10 15 11 15 12 10 7 5 6 7 7 11 13 15
4 2 8 7 9 8 6 5 4 8 8 14 11 10 8 13 14 8 13 11 11 7 7 6 5 4 3 2 2 1 7 13 11 8 12 9 3 13 10 4 1 6 10 11
6 6 10 15 10 12 10 10 13 8 8 9 8 5 8 9 8 14 10 3 9 12 10 6 6 3 2 5 6 6 8 8 7 3 7 6 5 9 10 11 7 9 10 11
10 11 9 9 10 9 18 18 14 11 9 14 12 13 11 6 14 15 14 15 14 13 12 12 12 11 7 5 3 7 3 5 4 6 2 9 11 12 4 10 19 12 8 10
9 7 10 14 7 11 10 10 10 9 11 5 5 8 9 6 4 8 5 9 11 12 11 11 10 7 5 7 1 4 8 10 11 9 2 2 4 4 6 8 8 5 9 6
6 16 9 9 5 7 7 15 18 15 3 3 8 7 9 8 6 14 7 8 6 4 6 7 6 7 8 8 7 4 1 3 1 3 5 1 3 5 8 8 8 9 11 9
14 13 16 14 9 7 12 18 18 17 13 13 17 23 4 10 12 12 10 6 3 3 7 6 6 4 6 9 11 10 10 7 5 10 8 5 5 6 7 7 8 9 8 7
6 8 16 17 16 16 16 14 9 11 16 9 9 13 10 9 2 14 11 11 14 5 7 6 6 6 8 13 8 10 9 9 6 8 13 10 7 8 11 11 8 8 9 11
16 20 16 17 18 18 16 15 16 15 13 14 14 16 16 12 19 18 17 16 19 18 15 9 13 10 13 18 14 18 19 14 15 15 3 8 10 10 13 9 9 10 9 9

GFSNGP_925_spd_009.txt.gz
Wind_Speed
17 17 18 25 15 25 22 20 15 13 19 13 17 10 10 8 9 9 7 10 13 22 21 22 28 35 38 41 43 42 41 40 41 41 39 37 36 36 40 37 38 38 39 37
8 12 21 21 19 19 26 23 19 17 20 7 11 10 6 9 9 11 6 9 12 15 19 19 23 31 38 40 43 44 42 42 41 37 38 36 36 35 35 38 35 35 34 35
10 7 8 15 27 20 11 23 21 19 19 8 10 8 4 10 10 9 3 10 10 10 11 19 29 38 37 42 45 44 42 41 42 40 36 38 34 33 34 34 32 32 31 30
6 6 8 10 9 12 14 7 13 10 12 11 12 12 10 7 4 8 8 3 8 12 9 21 30 35 42 40 42 43 41 40 42 40 40 34 35 34 31 33 33 33 31 30
5 8 3 8 11 4 7 10 1 8 8 4 4 3 6 9 10 13 18 18 9 14 14 28 33 37 35 37 39 41 38 40 43 42 38 35 34 30 29 27 27 28 28 29
3 6 14 5 5 9 5 2 6 10 8 8 7 3 4 6 2 5 11 8 11 19 12 20 26 36 36 36 35 37 41 42 39 40 35 31 33 29 29 31 23 27 22 22
5 6 4 4 5 5 4 4 4 7 6 6 3 4 5 8 3 4 2 5 16 19 11 25 30 34 32 36 35 43 36 31 31 31 31 35 35 33 30 25 23 18 18 21
4 4 3 8 6 6 3 6 9 9 8 5 5 7 6 7 2 4 2 5 5 7 10 26 29 31 25 27 31 31 32 31 31 35 35 39 37 30 27 24 20 22 20 23
8 5 3 6 7 2 7 10 10 11 11 12 16 17 17 7 6 5 5 7 11 9 10 11 29 29 21 25 33 33 33 32 33 34 33 30 29 26 23 21 20 21 24 23
8 8 3 7 7 12 10 14 10 11 12 15 15 14 15 15 16 9 7 6 11 14 11 10 20 26 31 33 38 35 33 31 32 33 29 28 26 26 26 23 20 19 18 18
6 5 8 15 10 16 16 15 11 13 17 15 15 13 12 13 13 12 11 3 12 12 13 15 23 24 28 31 36 30 28 27 28 31 27 26 22 20 22 19 18 20 19 19
2 8 7 2 8 11 15 13 12 14 14 13 15 11 11 11 11 14 17 36 15 20 23 24 26 27 30 33 36 31 27 24 25 24 29 31 28 25 18 16 14 14 16 14
3 5 14 16 19 15 17 15 15 13 12 11 10 10 9 9 13 17 24 39 13 15 23 24 22 22 24 29 31 28 24 26 25 26 26 27 28 28 22 16 15 14 12 14
3 7 15 17 11 11 15 16 18 17 15 14 8 9 8 10 11 16 18 41 26 20 22 19 23 23 22 22 26 26 25 28 25 25 24 23 25 26 27 23 17 15 16 15
9 12 14 7 16 14 13 12 16 15 14 16 17 13 11 9 9 8 9 22 26 22 20 18 17 16 17 20 24 24 24 22 21 20 24 27 27 26 25 20 21 19 18 17
9 11 12 8 8 4 8 9 12 11 11 10 12 14 17 17 18 19 20 23 19 10 12 10 12 12 12 15 17 20 22 18 19 24 26 28 27 23 24 23 24 24 21 22
9 8 7 9 5 6 4 3 7 6 7 11 10 14 17 15 16 16 20 23 25 24 26 11 11 7 9 9 9 10 10 13 4 16 22 25 23 22 25 30 27 28 26 27
6 6 5 4 5 5 4 4 2 4 5 11 14 16 16 8 6 10 18 22 23 22 22 16 12 18 16 14 11 10 17 17 20 16 19 17 17 12 16 24 23 23 21 19
1 2 2 2 3 6 5 2 4 1 3 8 8 6 12 14 16 12 11 14 18 13 21 15 8 7 8 12 6 8 12 15 19 19 19 15 18 16 17 25 24 24 22 24
7 10 3 3 8 8 7 14 14 11 11 14 11 10 6 10 11 13 14 13 10 9 2 3 6 8 10 13 11 9 11 13 11 17 15 11 11 10 6 22 22 20 21 26
5 13 8 10 11 18 18 16 16 12 15 16 12 8 10 14 17 18 15 4 14 15 15 15 14 12 12 15 20 18 16 18 12 8 9 11 11 9 6 4 3 23 23 24
12 11 8 9 9 12 19 16 14 13 15 16 16 17 13 13 17 17 15 11 12 13 15 16 16 13 13 10 11 10 13 14 13 9 7 2 3 6 6 12 13 13 23 26
10 7 8 13 10 12 12 11 17 12 14 16 17 18 17 7 9 7 4 7 11 11 11 12 12 13 12 15 10 8 10 10 12 10 8 12 9 8 7 7 6 3 3 3
19 16 8 18 21 19 12 16 26 20 23 22 29 22 25 19 11 5 9 8 8 5 5 6 10 12 12 15 17 16 5 10 9 7 9 14 12 6 4 2 1 3 2 3
6 8 19 18 12 7 16 15 20 20 17 15 24 24 19 23 21 15 16 16 16 8 4 5 8 10 18 22 22 18 21 16 3 6 11 13 12 11 11 11 10 8 7 5
15 16 19 24 21 21 19 19 14 18 18 16 19 20 19 22 25 26 26 24 21 19 19 14 15 15 23 26 24 22 23 24 24 20 8 9 3 7 6 8 5 11 10 9
22 22 21 20 23 22 20 20 17 12 19 18 12 17 19 22 25 25 27 28 26 26 23 13 17 18 18 21 22 24 24 23 20 18 21 20 19 16 11 6 8 5 5 4

GFSNGP_925_spd_012.txt.gz
Wind_Speed
13 17 20 17 10 19 21 21 21 21 12 9 10 9 10 9 9 7 15 12 17 19 20 20 27 35 37 39 42 43 43 42 42 41 37 37 39 42 40 39 41 42 41 39
7 13 25 23 19 22 18 21 20 9 8 11 13 11 8 11 9 10 11 16 19 22 23 21 25 35 39 39 42 42 41 43 42 39 38 38 38 37 37 36 39 38 37 40
7 9 16 17 33 21 15 11 16 15 10 10 9 9 11 10 9 10 9 14 14 22 23 21 29 36 36 40 40 41 43 39 39 39 38 38 37 35 35 35 34 34 34 37
6 7 15 5 19 14 8 7 10 15 11 14 15 16 11 10 9 9 9 7 21 16 18 29 36 37 42 39 41 41 41 39 39 39 38 36 35 36 32 32 32 34 35 34
4 3 7 3 3 9 8 5 3 7 10 7 7 5 4 5 5 12 11 9 8 14 20 20 31 37 36 35 38 38 38 39 40 40 36 35 35 36 32 30 32 35 37 37
4 3 5 3 2 8 7 2 5 1 7 7 7 9 4 5 3 10 7 6 10 16 23 27 31 36 39 36 38 38 42 43 44 40 37 35 36 34 33 35 35 37 38 34
8 5 6 5 14 1 8 7 2 2 3 4 6 4 4 3 4 3 3 8 14 13 12 26 35 31 30 33 34 47 48 45 36 39 38 37 33 33 34 34 34 34 32 30
4 4 6 18 13 4 6 3 6 4 3 8 7 7 5 6 1 5 6 6 6 5 11 30 30 34 31 30 46 45 38 34 34 36 36 36 37 34 36 36 31 27 27 24
5 5 14 10 3 8 5 7 4 4 3 6 7 6 6 7 9 10 11 8 17 10 7 9 20 31 28 42 37 31 32 31 32 32 34 38 38 35 29 29 27 25 23 24
2 1 13 15 9 7 6 9 8 8 7 5 9 6 11 10 10 9 11 14 22 22 15 7 14 24 27 31 38 38 32 29 31 32 33 34 32 33 30 29 27 25 23 23
2 5 16 13 12 4 8 11 11 10 8 8 10 12 10 8 8 7 9 14 16 12 13 23 30 21 23 26 30 32 34 29 28 28 30 29 26 20 23 25 35 32 30 30
1 8 5 6 6 9 10 9 8 9 11 11 12 10 9 8 6 8 10 13 12 15 18 20 33 44 27 36 41 34 28 30 27 27 27 30 29 22 25 26 25 26 27 27
3 11 1 5 15 11 13 14 10 9 8 12 8 8 7 5 6 11 16 13 14 17 21 52 58 32 23 28 36 33 29 29 30 35 34 27 36 38 15 21 25 23 25 24
7 6 10 12 7 11 14 11 8 15 14 14 11 9 6 6 8 10 8 9 14 17 20 36 5 44 10 22 26 29 23 24 25 24 29 29 27 33 30 25 22 24 24 23
7 6 12 6 13 9 12 9 11 14 13 15 13 11 11 13 13 12 19 18 16 18 15 13 19 24 18 19 23 29 26 23 23 25 27 30 29 26 19 20 21 24 21 22
10 7 11 12 9 11 12 14 12 11 11 9 9 10 13 18 18 20 22 23 19 11 21 23 26 17 18 20 21 23 23 22 26 27 27 24 25 25 24 20 20 19 21 23
12 8 8 6 7 7 7 8 9 8 7 9 8 10 12 12 15 16 20 21 21 23 26 25 22 23 27 29 21 20 18 13 17 21 22 24 25 26 22 15 18 22 25 26
10 8 4 3 6 7 6 4 3 3 4 5 11 13 10 7 6 7 14 17 20 26 34 23 19 18 18 17 14 13 16 12 10 9 9 12 15 18 22 26 27 26 25 24
6 2 2 1 2 2 3 4 3 4 5 7 10 6 9 14 15 12 16 16 13 11 17 21 19 18 15 8 6 6 7 0 6 9 11 15 14 10 17 25 23 26 24 25
8 6 4 4 8 3 5 5 9 9 9 9 11 11 9 15 17 17 19 16 19 14 10 11 17 22 15 13 18 20 22 24 24 23 19 15 12 16 23 22 26 27 27 28
8 8 10 10 11 14 13 16 15 10 13 16 12 9 12 18 20 18 16 7 18 20 22 20 19 14 13 8 13 18 20 21 22 20 20 16 17 14 19 21 22 25 26 28
5 8 8 10 9 10 18 19 18 17 19 22 17 14 14 15 17 18 17 13 13 17 21 23 22 22 19 8 13 17 17 17 17 18 16 12 11 14 17 17 21 23 25 27
10 14 14 14 15 18 23 22 21 25 23 21 24 24 18 15 14 12 5 15 13 16 19 24 24 25 25 26 8 9 13 13 13 16 21 18 17 10 10 12 11 13 17 20
18 23 20 22 24 22 12 17 26 24 24 25 26 27 25 19 26 28 28 19 11 13 20 22 23 25 27 28 26 23 12 4 2 9 13 11 10 12 15 13 14 14 12 11
19 24 28 25 17 13 19 17 22 25 26 25 25 26 32 31 24 26 34 32 29 24 23 22 24 26 26 25 26 26 26 23 19 13 2 6 8 11 12 11 10 10 9 7
20 17 21 24 19 20 20 23 17 19 20 21 23 25 29 26 29 33 33 34 37 33 33 28 27 27 26 25 24 24 24 24 24 22 20 19 16 12 7 3 5 7 12 12
22 24 23 23 26 27 26 25 21 19 22 21 23 27 29 28 32 33 33 32 31 30 32 31 30 28 24 25 23 21 21 21 21 20 21 23 21 21 18 15 15 12 10 6

GFSNGP_925_spd_015.txt.gz
Wind_Speed
5 13 14 15 12 25 20 23 16 18 12 14 10 11 11 11 5 7 9 10 13 14 15 17 23 31 33 35 36 40 40 39 41 38 38 37 39 41 42 40 42 42 40 39
5 9 10 15 20 25 24 23 18 17 8 9 14 9 7 10 10 10 9 9 9 20 20 19 22 34 37 37 37 39 39 41 40 39 38 38 39 38 38 39 39 40 41 42
5 8 11 11 25 20 23 13 17 19 9 8 11 11 12 13 11 11 11 11 14 15 14 18 25 34 35 39 37 39 41 38 37 37 37 38 37 35 37 37 38 41 40 41
5 6 8 10 9 17 18 8 9 5 10 12 15 18 15 12 11 11 10 10 10 12 14 21 30 36 38 33 36 39 39 37 36 39 39 36 35 37 35 35 39 39 40 40
3 3 9 12 4 9 13 14 7 12 10 8 9 1 6 7 7 9 9 10 11 15 17 22 29 32 30 30 33 33 34 35 37 39 38 36 37 37 34 32 33 36 39 40
3 4 6 0 18 21 14 17 9 10 11 10 8 7 12 4 6 10 10 4 6 17 18 20 24 26 29 29 32 33 35 40 41 41 38 38 39 38 37 36 33 33 39 41
11 5 8 9 25 11 5 8 6 8 6 8 7 6 3 2 4 7 5 9 10 10 4 12 24 27 20 23 27 38 38 40 37 37 40 41 36 35 38 37 33 33 34 35
8 8 8 13 10 9 10 15 6 6 4 7 6 6 7 11 11 12 13 13 16 13 15 19 7 9 15 23 39 36 32 29 32 36 36 34 35 33 34 33 31 29 26 27
6 6 2 1 8 13 10 6 8 4 5 6 7 8 7 7 9 9 9 8 12 13 12 20 21 7 11 31 29 31 29 31 33 33 33 34 34 34 31 32 27 24 23 22
3 6 3 9 10 14 13 7 9 7 8 11 13 8 9 9 9 10 10 10 11 11 9 7 14 17 16 16 20 23 25 32 34 34 36 39 37 35 33 29 27 23 23 21
5 5 1 9 8 12 11 9 9 11 10 12 11 8 6 7 8 6 6 6 12 9 8 14 24 23 20 20 27 21 27 25 23 24 34 30 29 29 30 28 31 26 21 23
7 4 2 6 7 11 4 6 9 10 11 11 10 8 7 9 5 4 6 6 6 10 10 14 20 24 27 23 14 21 15 18 23 27 24 27 32 33 27 24 25 20 16 5
3 4 8 13 4 9 8 6 8 10 8 11 9 8 7 6 6 7 10 11 12 12 12 13 16 22 30 28 22 11 7 22 22 26 27 27 25 29 25 31 23 15 24 33
11 10 9 10 9 7 4 7 11 13 11 9 9 10 10 10 12 11 11 14 15 14 16 17 18 22 22 20 16 29 27 4 18 24 28 31 25 21 29 27 25 19 27 23
15 7 14 16 10 4 2 5 14 11 9 10 9 9 11 11 11 10 16 19 19 21 21 21 20 19 8 22 12 5 20 22 7 6 29 44 35 23 8 14 27 29 20 22
8 5 10 21 7 9 12 11 12 10 11 9 9 10 11 12 11 16 22 22 15 8 16 18 25 25 18 11 16 15 9 9 35 22 23 26 28 34 29 24 28 29 27 30
11 7 9 11 11 9 9 4 8 10 10 11 9 14 13 10 13 16 17 19 21 18 18 21 23 24 26 25 21 22 21 21 22 19 18 19 25 27 28 29 27 29 30 29
10 9 9 9 8 6 6 6 7 8 7 6 13 13 10 7 7 9 12 13 16 25 27 23 20 18 19 20 23 26 24 22 21 20 22 21 18 20 21 21 23 26 27 29
9 11 9 8 7 7 5 5 6 9 12 14 12 5 10 13 15 16 19 19 17 11 19 22 19 16 12 10 12 14 18 20 22 23 22 23 22 20 20 21 20 22 27 27
11 4 1 2 5 6 6 8 11 11 14 15 15 14 12 16 18 18 18 16 19 16 22 20 20 21 16 13 10 14 16 14 14 14 16 18 19 18 17 19 22 21 23 27
15 15 14 13 10 15 16 17 16 12 15 19 17 12 12 20 25 23 16 9 26 27 27 31 28 19 17 12 12 15 18 18 20 18 18 15 12 10 13 14 18 20 23 28
14 15 16 13 15 16 24 24 24 24 21 21 20 22 22 21 23 21 26 17 23 27 30 29 28 24 17 19 17 14 11 10 13 12 12 10 8 6 5 3 8 13 23 25
17 20 20 18 15 16 24 24 26 25 24 26 22 21 21 22 23 17 9 24 29 30 31 30 28 27 25 22 21 19 15 11 10 15 15 11 9 11 8 5 2 8 13 15
23 24 23 24 26 24 15 19 23 24 26 27 28 27 22 20 28 27 28 32 33 35 36 32 31 32 35 35 34 30 23 17 13 8 3 3 7 12 18 11 3 3 3 11
21 23 25 22 16 11 17 17 23 23 24 27 28 26 26 27 24 22 30 34 36 35 35 35 35 37 36 33 34 33 31 31 26 20 16 14 10 7 4 6 7 7 9 10
21 18 19 22 18 18 18 20 18 19 19 21 25 25 29 30 30 32 33 31 34 32 32 36 38 36 33 30 29 29 27 25 27 27 27 25 22 17 15 9 8 5 4 3
26 26 22 22 23 22 23 22 20 17 20 19 21 23 26 29 30 31 30 29 28 27 29 29 32 32 30 30 27 21 20 19 19 20 23 23 22 20 21 18 19 17 17 16

GFSNGP_925_spd_021.txt.gz
Wind_Speed
2 4 4 8 10 11 16 22 22 20 26 20 18 18 18 11 9 10 11 11 11 13 13 15 22 28 33 36 35 38 38 39 43 44 41 38 39 41 40 38 39 40 38 36
5 9 10 12 12 13 15 17 16 21 23 14 7 14 19 21 18 15 15 13 13 12 12 15 20 26 31 34 37 37 38 41 39 37 39 40 38 38 36 38 37 37 37 38
5 5 10 14 21 16 15 14 15 21 17 13 15 17 16 19 19 17 16 15 14 13 12 13 22 29 30 33 30 36 38 34 32 33 35 38 39 38 40 40 38 38 37 37
5 3 9 4 3 6 11 14 19 22 19 17 15 17 18 19 18 19 20 18 16 15 12 18 20 23 26 27 31 31 31 31 32 35 36 36 36 39 38 38 39 38 38 38
5 11 16 16 5 1 4 12 6 8 17 21 20 21 18 17 19 21 19 16 13 15 17 15 21 23 24 26 29 29 33 37 39 40 37 34 36 39 37 35 35 37 35 37
4 9 11 3 7 2 4 13 5 7 12 10 14 15 14 15 17 17 14 12 11 12 12 14 16 21 24 26 26 30 35 35 27 29 32 35 36 34 33 36 37 35 36 38
14 9 7 10 3 2 8 1 9 9 13 14 10 12 12 5 6 5 6 9 11 7 5 3 9 18 21 22 26 26 23 26 28 32 35 35 33 33 33 33 30 34 37 37
12 11 19 11 11 9 5 7 12 14 13 17 16 17 16 9 5 6 6 7 8 7 5 2 5 14 14 14 14 16 20 24 26 29 30 30 32 31 33 33 33 33 33 31
9 9 13 14 14 14 9 12 13 15 15 16 17 13 11 8 7 8 9 9 11 10 12 10 9 10 12 10 8 12 17 21 24 25 28 29 31 32 31 32 33 32 29 28
10 15 20 19 18 15 11 12 15 13 13 14 12 10 7 6 7 8 7 8 12 11 10 12 14 13 12 7 5 7 13 17 20 23 26 29 30 29 31 31 32 30 29 31
12 17 19 20 17 14 12 12 10 6 8 5 5 4 6 7 6 4 7 7 9 10 11 12 10 10 8 6 1 2 3 6 12 19 24 26 31 30 32 35 37 35 34 34
10 6 10 16 13 15 12 11 5 3 4 6 7 6 6 7 5 4 5 7 9 10 11 10 9 10 8 6 5 3 1 3 7 12 17 24 25 28 38 37 38 42 37 34
15 11 17 19 18 20 14 8 4 4 2 10 6 5 4 6 7 7 8 10 10 10 11 11 10 9 8 6 6 5 3 3 4 7 10 14 18 19 18 25 37 38 41 38
16 11 18 19 14 11 10 10 5 5 6 10 10 9 10 10 13 12 12 14 15 16 17 16 13 13 13 12 13 13 11 11 9 17 18 14 8 12 21 19 20 15 47 51
17 19 20 19 14 3 9 12 8 8 9 13 15 13 15 15 14 13 14 11 13 18 19 20 21 19 17 17 13 15 12 10 10 13 16 14 16 17 24 16 26 30 28 48
10 13 15 15 12 5 11 11 11 12 9 12 15 17 17 19 19 18 19 16 14 12 16 18 19 19 19 16 13 10 8 7 4 2 3 5 7 13 15 17 18 16 15 48
13 11 9 4 10 10 5 6 10 12 13 14 15 18 18 19 21 21 21 13 15 22 22 23 19 18 18 17 13 13 12 9 8 3 5 8 6 6 13 10 10 14 25 19
13 11 10 4 12 7 5 9 9 13 15 19 25 26 20 14 11 14 12 12 18 29 29 22 20 17 18 18 16 13 14 13 13 11 8 4 4 5 8 7 7 8 9 13
15 16 16 4 8 11 10 10 9 15 25 25 25 17 22 18 18 15 16 24 25 22 26 23 24 22 22 23 17 14 15 15 15 16 11 7 8 11 13 6 9 11 15 16
24 17 17 17 27 23 16 20 16 18 23 26 27 23 18 18 16 18 23 26 24 22 23 26 23 23 21 23 24 22 20 20 17 17 16 14 14 15 15 15 10 7 7 8
25 23 22 24 22 29 25 19 18 19 24 25 24 22 23 24 27 24 23 14 27 23 26 30 29 23 22 21 23 25 27 27 23 22 20 18 16 18 16 16 14 11 8 8
17 17 18 23 20 19 23 21 24 25 27 25 23 21 23 23 25 29 28 22 21 25 28 27 27 28 28 27 25 24 26 28 27 24 23 22 22 20 20 24 23 17 9 5
18 19 20 20 19 18 23 24 25 25 25 23 24 23 25 25 23 20 14 22 24 28 28 28 32 34 30 27 27 25 26 26 24 25 23 23 23 20 19 19 17 16 16 14
20 20 18 19 22 24 16 19 23 24 25 26 26 23 19 20 24 22 21 22 25 26 28 28 30 31 28 29 27 26 26 23 22 22 22 22 18 17 16 16 19 19 20 18
20 20 22 21 18 14 17 15 22 22 24 24 24 26 25 23 23 18 19 20 25 21 24 30 31 28 25 24 24 24 25 25 26 23 22 22 22 21 20 19 19 17 17 19
19 16 16 18 15 15 15 17 19 18 18 21 23 22 21 20 19 18 19 19 19 21 20 21 24 23 22 23 21 21 22 23 22 23 22 21 21 21 20 20 21 22 21 20
15 16 12 13 15 15 15 16 17 17 17 17 17 16 16 14 14 15 16 16 17 17 17 19 21 21 19 18 19 19 19 18 21 19 18 18 18 17 17 17 16 15 16 18

GFSNGP_925_spd_024.txt.gz
Wind_Speed
15 2 6 18 28 29 30 26 23 18 20 17 7 8 7 8 11 9 5 4 6 10 12 13 18 24 29 33 33 35 36 38 40 41 39 37 38 38 39 38 39 38 36 36
14 10 7 10 12 13 22 27 26 25 22 11 10 5 14 14 14 15 16 16 16 11 13 13 18 22 25 29 33 34 32 38 35 34 35 37 35 37 37 38 38 37 38 38
15 10 10 15 20 19 18 17 17 21 16 17 17 16 17 17 16 17 16 17 15 14 14 13 18 20 23 26 28 32 35 32 34 33 36 35 34 34 37 38 36 38 38 39
6 6 15 11 10 20 23 18 19 18 17 15 14 16 17 18 18 19 18 18 17 16 14 16 18 18 17 20 27 30 31 33 33 34 33 30 33 37 37 36 39 39 39 40
10 12 9 5 3 8 11 17 17 15 9 12 15 19 21 19 19 19 20 18 17 21 21 19 20 19 16 20 24 29 31 36 36 33 32 33 36 38 37 35 35 38 37 38
7 15 14 4 16 3 2 9 6 5 8 9 8 10 12 18 20 18 18 17 16 20 16 16 19 18 19 21 24 29 31 30 31 32 33 35 35 34 34 35 36 35 37 40
13 11 9 8 8 2 11 4 6 4 7 9 9 11 18 20 19 17 14 15 17 17 16 16 13 14 19 20 25 26 25 26 28 30 33 34 32 32 32 34 33 34 35 36
13 16 21 6 9 12 11 10 12 11 11 12 13 14 18 19 20 20 16 14 13 11 11 11 11 15 18 18 19 20 22 24 25 27 29 29 30 29 31 31 31 31 32 34
9 11 12 6 11 12 15 15 14 17 17 17 17 16 18 16 16 14 13 9 9 9 6 5 7 11 12 11 14 16 19 21 22 23 25 25 27 28 29 30 32 32 33 34
17 21 21 15 19 17 13 18 18 17 18 17 20 18 16 14 9 6 3 1 1 2 4 6 7 8 9 9 10 12 14 15 16 19 20 22 24 26 27 28 30 31 29 30
19 21 20 19 18 19 18 16 16 17 17 16 17 16 14 5 3 2 1 3 5 5 6 9 10 10 8 7 5 6 8 10 12 15 18 18 22 23 26 28 29 29 32 31
15 13 16 19 15 12 14 15 18 17 16 13 9 7 4 1 2 2 3 5 9 10 9 10 10 10 9 8 6 3 3 5 6 9 12 16 18 20 28 29 24 35 35 33
18 17 13 15 13 17 19 19 19 16 14 11 8 8 6 6 5 7 10 10 11 10 11 13 13 12 10 8 6 5 4 2 1 2 4 6 9 12 15 11 23 35 36 42
15 15 19 22 17 17 17 18 17 15 8 9 9 10 9 9 12 13 12 15 16 16 16 15 14 13 11 9 9 8 10 8 5 5 4 2 2 3 7 12 18 23 25 32
18 17 21 20 20 18 17 15 11 10 5 8 7 9 10 12 12 12 17 17 19 20 20 19 19 18 15 10 9 9 8 8 6 7 8 7 7 7 9 11 14 12 12 14
13 16 21 20 20 16 18 13 10 9 5 8 3 9 16 18 19 20 20 20 18 15 20 21 20 18 17 14 12 12 13 15 7 6 5 5 8 11 11 6 5 7 8 5
14 14 12 13 15 14 8 7 9 5 8 11 11 15 19 17 20 20 20 23 24 24 23 24 20 19 16 14 13 12 15 13 13 10 10 9 6 6 6 9 7 6 9 7
14 10 8 6 6 3 2 7 9 9 9 20 19 15 18 15 15 13 18 20 24 27 26 24 21 23 21 14 11 11 16 17 16 15 14 13 12 11 12 10 7 5 1 4
11 12 17 20 19 13 15 17 17 23 13 18 21 15 21 22 20 20 24 27 25 23 23 25 24 26 25 23 16 15 16 17 17 16 15 15 15 17 15 12 9 9 7 4
24 19 25 26 29 23 19 21 26 24 21 24 23 23 20 22 21 24 30 29 26 24 26 29 24 24 17 22 22 21 21 20 19 18 18 17 16 16 15 16 14 13 16 15
20 21 24 20 18 29 29 29 28 24 24 25 22 21 21 21 26 27 27 15 28 25 28 31 27 23 21 20 22 23 23 21 21 19 20 20 19 19 19 20 20 18 15 14
16 16 16 22 21 24 28 29 28 26 27 25 25 24 18 25 27 31 30 26 25 28 28 28 25 24 21 22 22 24 22 21 19 19 21 20 20 20 19 21 22 23 24 22
20 21 23 23 21 19 23 24 24 24 24 22 24 23 25 26 25 21 15 26 25 25 24 24 25 22 27 25 23 22 21 19 19 19 17 19 17 15 21 24 21 23 28 27
18 21 19 19 22 24 17 21 23 23 24 25 26 26 22 20 21 21 20 23 21 20 27 26 26 26 25 22 21 22 22 20 19 19 19 20 18 17 18 17 17 25 26 27
18 20 20 19 16 14 16 16 17 19 22 23 23 22 21 21 20 18 19 19 23 20 19 25 25 22 21 20 19 20 19 20 21 20 20 20 20 19 20 21 22 20 20 21
19 15 15 17 16 14 13 14 16 17 16 16 18 18 17 18 18 18 17 18 16 16 16 17 20 18 17 18 17 17 16 19 19 19 18 16 16 17 18 19 19 20 20 20
13 17 12 12 14 16 16 15 15 15 15 13 13 15 15 14 14 14 15 15 15 15 16 16 16 17 15 15 15 14 15 14 17 16 14 14 15 15 16 16 17 17 17 19

GFSNGP_925_spd_027.txt.gz
Wind_Speed
26 18 20 28 29 30 30 24 24 15 19 15 13 11 12 12 9 5 6 7 10 10 10 10 15 21 27 31 31 35 36 38 41 37 36 35 36 39 38 38 39 38 37 37
24 24 5 14 26 32 30 27 24 23 14 18 17 11 9 7 6 5 6 7 8 11 10 12 16 19 22 27 29 30 31 38 36 37 36 37 35 36 36 38 40 39 40 41
17 22 11 16 20 20 24 27 22 22 19 9 6 4 3 6 8 9 9 10 11 12 11 12 18 19 21 24 29 31 31 30 35 34 36 35 33 35 39 39 36 40 41 40
12 18 20 14 19 14 14 14 16 12 10 9 6 8 11 10 12 11 11 12 11 12 12 17 21 19 25 24 26 28 28 33 33 35 33 35 37 39 36 37 39 38 39 40
10 16 7 17 14 21 22 20 14 14 13 10 10 10 14 16 17 17 16 15 13 16 16 15 15 12 13 19 22 26 29 31 33 33 33 34 37 37 35 36 37 39 38 39
8 13 18 4 10 2 3 12 20 18 15 11 9 10 7 12 15 14 14 12 11 16 15 16 17 21 21 21 21 24 28 28 31 32 34 35 35 34 34 34 35 33 37 40
13 8 10 5 12 11 12 6 15 4 3 6 6 8 16 16 15 13 14 14 18 12 13 15 15 16 15 19 21 26 23 25 28 31 33 32 31 31 32 32 31 33 34 35
14 16 17 4 7 5 8 10 13 11 10 10 10 12 14 16 16 16 15 14 16 15 10 13 14 12 13 15 18 16 19 22 25 27 29 30 29 28 28 28 29 30 29 32
13 15 3 10 13 6 5 8 8 11 12 10 12 12 14 14 15 14 13 10 11 12 12 5 5 9 12 12 13 14 17 18 20 22 24 24 25 25 24 26 27 27 28 30
14 17 14 15 12 9 11 13 12 14 15 13 14 14 15 15 13 9 6 7 8 7 4 2 4 2 3 2 6 11 13 15 16 18 19 20 22 22 24 25 26 27 26 25
19 19 19 19 17 15 19 15 17 15 16 17 16 15 14 14 14 9 6 6 5 1 3 5 5 6 5 4 2 8 10 12 14 15 18 18 19 21 22 23 24 23 24 26
14 14 13 18 19 21 19 16 17 16 18 19 19 16 15 13 11 7 9 10 7 5 6 6 7 8 6 5 3 1 4 8 10 13 16 16 15 18 20 22 18 20 21 22
19 22 23 19 15 16 21 12 16 19 21 21 18 13 14 11 8 7 3 3 5 5 12 10 8 7 7 7 6 5 4 4 2 4 6 5 6 7 9 7 15 16 14 18
19 13 20 21 13 18 15 14 17 22 22 22 18 16 14 8 6 9 11 12 12 13 13 13 11 12 9 11 10 10 10 7 4 5 3 3 3 2 2 3 6 7 11 18
24 21 20 17 16 16 17 20 16 16 18 14 16 13 12 9 11 8 10 13 14 13 14 17 17 14 14 13 15 13 11 9 5 6 7 5 3 1 2 3 2 4 9 9
22 15 13 15 17 20 22 22 19 16 17 15 15 12 15 14 9 14 14 12 14 10 12 14 15 16 16 14 15 14 16 16 10 8 5 3 4 5 3 4 5 6 6 9
15 10 10 12 17 19 21 20 15 16 12 11 4 1 19 14 19 15 20 19 18 18 18 16 14 12 13 15 17 16 14 14 12 11 10 8 9 11 12 11 8 5 6 7
9 10 11 13 15 15 15 12 10 4 3 10 5 17 14 14 12 14 19 19 20 21 21 21 17 17 15 11 12 15 17 19 18 17 15 14 13 12 12 12 13 14 14 9
12 3 8 15 18 16 8 16 15 22 19 22 17 15 18 24 23 26 29 26 20 20 20 19 21 22 24 24 16 16 22 19 18 17 13 11 13 15 15 14 12 14 13 12
23 21 24 20 28 23 15 25 31 30 30 34 27 26 22 24 24 26 29 29 29 26 25 21 19 19 21 22 20 19 21 21 20 20 21 16 19 18 18 18 16 17 19 17
21 21 24 22 20 26 26 27 31 26 26 27 23 23 26 31 30 29 27 15 29 24 25 27 24 19 20 18 20 20 21 20 18 19 18 17 19 19 19 20 20 21 20 22
16 15 16 21 21 22 26 28 27 27 26 27 27 26 25 22 26 32 32 26 27 25 24 25 23 27 23 23 21 20 21 19 17 17 17 18 20 19 18 19 19 19 21 25
22 23 20 20 18 18 23 24 26 27 26 23 22 24 24 23 24 20 15 22 24 26 22 25 31 27 22 21 19 19 20 18 18 17 15 15 15 13 12 17 18 21 23 27
21 21 19 19 20 20 14 20 23 24 24 25 25 25 22 20 23 22 20 23 22 20 24 24 27 26 21 20 20 20 19 18 18 18 18 19 19 19 19 18 16 16 18 21
18 17 18 18 15 13 17 17 18 19 20 20 20 20 20 20 18 16 17 18 21 18 15 20 22 20 19 18 17 16 17 18 17 15 15 15 15 16 16 17 19 20 21 22
17 15 13 15 16 17 15 15 15 16 14 15 17 17 16 17 16 16 14 15 14 14 14 16 18 16 14 15 15 14 14 14 15 14 14 15 15 15 15 15 17 18 19 19
11 16 12 11 13 14 13 13 13 14 16 14 13 15 15 14 14 14 14 13 13 13 14 14 16 16 14 14 14 13 12 12 15 14 13 12 12 13 13 13 13 13 14 17

GFSNGP_925_spd_030.txt.gz
Wind_Speed
29 24 22 26 27 29 30 21 22 18 18 15 11 9 9 9 5 9 12 8 9 13 16 18 23 32 33 35 38 38 39 39 41 40 37 37 37 37 37 40 42 41 39 39
17 22 19 18 31 29 29 29 23 24 18 19 15 11 10 12 8 8 8 5 4 4 3 5 12 23 33 33 33 38 38 40 41 39 40 38 38 38 39 41 40 39 40 39
16 17 21 19 16 28 26 24 24 20 17 17 20 17 14 12 8 6 2 1 3 2 5 5 8 16 23 29 30 30 36 36 37 39 39 40 39 39 40 39 38 40 39 39
11 13 18 12 13 13 21 23 23 18 16 13 14 15 12 9 6 5 4 5 4 7 7 12 16 19 19 22 29 29 27 28 31 34 37 37 39 39 38 38 39 38 38 40
6 8 9 13 14 16 9 15 20 21 16 12 12 10 9 7 2 3 5 7 7 12 15 17 20 24 29 28 29 29 29 28 30 30 31 35 38 38 37 36 36 38 38 37
9 6 12 6 14 3 16 9 21 10 0 5 6 4 9 14 13 12 11 10 9 16 17 9 4 12 10 23 23 26 30 31 29 33 32 34 35 35 34 34 34 33 35 37
8 6 3 13 19 9 13 6 16 21 9 4 8 11 10 10 11 11 11 9 10 10 13 8 11 13 13 9 15 29 29 26 29 30 34 32 30 30 30 30 29 32 33 33
11 9 2 22 11 8 8 12 16 17 19 15 15 12 12 13 13 13 12 11 11 8 9 13 6 10 13 10 13 12 21 27 26 27 27 26 27 25 27 27 28 29 28 30
12 11 4 10 7 7 11 10 12 13 14 13 11 13 13 12 14 15 11 6 11 12 9 9 3 5 6 10 8 10 11 19 21 21 23 24 25 24 22 24 25 24 25 25
9 16 11 9 12 10 10 9 9 10 13 13 14 14 16 15 14 15 14 9 13 16 8 8 7 6 4 2 4 7 7 10 13 15 18 20 18 23 23 22 22 22 19 19
15 15 15 14 14 13 13 14 13 10 13 11 12 15 15 10 11 14 13 18 17 14 5 5 5 6 6 6 5 4 5 7 8 11 16 16 18 18 20 23 20 19 22 22
13 16 14 15 16 15 16 14 14 14 12 12 13 12 15 9 9 13 12 13 13 10 5 6 7 5 5 3 3 3 9 10 12 13 15 15 16 16 17 11 9 8 4 6
10 20 21 20 19 21 15 17 14 15 11 12 13 14 17 10 9 12 17 14 11 6 6 4 3 3 1 1 3 4 4 5 7 4 7 18 14 13 15 10 10 9 11 16
25 22 22 20 14 17 13 17 18 14 16 13 16 19 19 9 13 14 12 11 10 8 6 4 1 4 3 5 7 7 10 9 10 9 10 14 13 11 10 9 6 12 16 17
27 25 24 20 20 18 14 11 13 14 16 16 17 17 13 13 12 13 19 5 13 11 9 7 3 4 3 7 9 13 11 10 10 10 11 10 8 6 8 5 8 5 8 10
22 24 23 19 20 19 17 16 16 14 17 17 16 15 18 18 17 16 2 9 13 6 8 5 7 2 7 11 13 13 15 14 14 13 7 6 7 6 8 6 5 10 5 7
11 13 15 13 11 15 18 14 15 16 18 14 14 20 21 16 8 3 18 11 25 16 18 15 12 10 7 13 12 13 13 15 16 15 14 14 14 14 15 13 12 14 14 7
13 8 4 5 10 11 12 15 16 12 11 13 13 7 16 4 8 7 17 16 19 19 24 18 17 18 21 9 18 18 18 17 15 16 16 16 17 17 18 17 15 16 16 18
21 15 10 8 3 5 5 11 13 18 20 17 14 19 20 26 23 16 25 31 27 25 28 10 18 25 32 27 24 23 21 21 19 21 22 22 19 19 17 17 19 21 19 16
26 29 30 27 31 20 12 22 30 27 25 20 21 31 24 25 25 25 34 31 27 28 25 30 27 22 24 24 21 20 20 17 19 20 20 21 21 19 19 21 19 19 20 20
18 23 23 23 21 28 23 26 35 26 25 22 27 29 30 30 34 29 33 17 29 30 34 39 36 29 25 20 24 21 19 18 17 19 19 20 20 21 20 20 20 20 19 19
13 11 18 21 20 24 30 33 30 23 24 26 28 21 22 22 24 27 28 21 22 26 33 35 30 29 28 30 30 28 23 18 18 17 18 18 19 19 19 17 19 19 20 19
14 14 17 16 16 16 22 24 23 23 23 22 20 20 22 20 19 15 9 14 17 17 17 25 26 25 24 23 23 24 20 18 19 19 22 22 18 17 17 15 16 16 16 19
15 19 12 16 20 17 11 15 15 16 18 22 23 20 15 15 17 17 18 19 14 19 24 25 25 24 22 21 21 20 18 16 17 18 18 17 17 16 17 17 18 19 22 24
16 10 16 17 12 9 15 13 14 16 16 16 15 16 17 15 14 13 13 14 13 13 18 19 17 17 19 19 18 16 18 20 20 17 17 17 16 16 16 17 18 20 21 22
11 13 12 13 13 15 16 14 14 17 13 13 15 15 14 15 14 13 13 12 13 14 17 17 18 16 16 16 14 16 18 18 17 16 16 15 14 15 15 13 14 15 16 19
12 14 13 13 13 13 13 14 15 14 15 13 14 15 16 16 13 11 11 13 14 15 15 15 15 16 16 16 16 16 17 17 18 16 15 16 18 18 17 14 14 12 15 17

GFSNGP_925_spd_033.txt.gz
Wind_Speed
14 14 13 17 25 22 23 13 17 12 7 5 2 7 7 7 8 8 10 17 22 23 21 22 30 36 37 39 40 39 38 38 40 38 39 37 38 36 40 42 37 39 38 40
5 11 14 18 26 23 21 19 10 14 8 8 7 9 13 10 11 12 10 9 10 15 21 24 30 35 37 38 40 42 40 43 39 39 38 40 38 40 37 38 40 38 40 41
5 5 6 3 14 24 18 18 16 13 8 6 7 12 13 11 10 10 10 10 9 9 8 8 22 31 34 37 41 40 42 39 40 39 40 40 40 37 38 37 35 39 39 38
5 5 2 7 4 11 18 9 19 14 11 12 9 11 12 8 11 9 10 10 9 7 4 8 14 30 34 35 34 39 38 38 36 38 38 39 38 40 37 38 38 38 38 39
4 2 3 4 12 11 4 11 23 11 4 14 18 22 16 14 14 10 10 8 7 14 16 11 11 20 32 30 33 32 35 34 38 39 39 37 38 38 38 35 35 37 36 36
4 4 2 12 26 26 8 11 20 20 19 14 17 11 5 11 12 13 10 6 8 15 15 15 14 7 24 29 30 30 32 36 37 39 37 38 38 38 37 37 36 33 35 36
4 3 6 18 24 14 7 3 12 17 16 22 17 7 6 12 13 13 9 10 14 14 8 10 7 8 9 7 19 36 36 34 33 35 39 38 36 34 33 33 31 31 30 31
1 4 4 27 19 14 5 9 11 13 17 15 14 14 12 11 14 15 17 10 20 17 19 16 8 6 7 6 1 10 16 27 32 35 34 30 32 31 30 29 28 26 25 25
6 2 11 9 14 11 11 9 10 9 12 11 15 16 14 9 10 12 14 17 24 21 20 20 21 12 10 9 6 2 6 17 32 32 31 27 25 28 26 26 25 22 22 20
7 12 15 8 3 17 9 9 8 10 9 11 10 11 12 12 9 10 12 15 22 22 16 15 19 20 19 16 11 8 5 10 21 24 23 23 21 26 24 24 21 19 20 20
9 8 11 11 15 18 17 12 6 6 6 6 8 8 7 7 7 8 11 19 21 18 17 13 15 16 17 16 13 14 7 8 15 18 20 20 21 16 24 24 25 24 26 24
7 16 4 13 16 19 16 13 10 16 7 7 8 7 7 6 3 6 9 18 17 19 17 10 8 10 12 12 12 14 12 7 10 14 17 21 22 13 10 16 12 11 14 14
18 17 18 17 17 17 12 12 10 9 10 9 8 6 7 8 9 17 17 17 16 16 8 6 6 5 8 9 10 9 5 4 14 9 19 23 23 20 25 28 26 21 20 20
22 17 19 14 8 11 13 15 16 5 8 8 9 15 12 10 12 13 12 17 22 19 9 6 5 3 9 4 6 8 5 11 15 20 22 20 18 22 28 20 18 23 19 17
17 17 23 16 13 13 13 12 10 7 5 7 14 9 12 8 10 12 21 24 17 9 7 4 1 1 5 6 7 12 11 11 18 20 19 18 17 22 24 23 22 21 15 19
18 13 15 16 11 10 10 13 11 7 6 5 6 10 7 11 14 16 18 8 4 4 5 3 1 4 4 8 10 13 15 17 18 22 24 25 25 22 23 21 18 23 23 18
8 6 6 6 8 9 11 7 6 5 6 7 6 14 8 7 11 7 4 12 14 17 15 14 9 5 11 14 14 16 22 23 24 28 26 24 24 23 22 23 22 20 21 20
22 19 16 12 6 5 3 6 8 7 7 9 11 11 6 7 5 13 15 16 17 29 28 19 17 5 12 18 24 23 24 25 25 23 24 26 25 25 24 23 22 20 19 21
28 22 21 22 18 3 4 6 11 14 16 17 15 13 17 21 16 18 21 25 20 20 25 20 14 18 27 25 25 31 27 25 24 23 24 26 24 22 22 23 23 23 22 21
23 31 33 33 37 27 14 16 25 26 25 25 21 16 18 18 16 20 25 25 19 15 27 21 16 18 28 28 25 26 31 27 25 24 23 24 23 22 24 23 20 19 20 20
14 21 24 26 27 33 32 22 25 24 24 24 23 19 20 21 24 22 21 17 25 29 32 35 38 32 36 29 23 26 28 25 23 23 21 22 22 21 21 20 18 17 17 19
10 11 15 20 20 20 23 24 28 26 26 25 22 19 22 22 18 27 26 21 24 34 34 31 36 38 39 35 31 29 29 20 18 24 26 24 22 20 19 19 20 20 23 26
9 10 8 10 12 13 15 21 22 23 23 21 21 23 21 18 19 21 13 23 28 30 34 33 32 34 34 36 34 29 24 21 20 24 24 23 23 24 22 22 24 24 24 24
12 9 11 9 10 12 9 7 8 12 17 19 19 13 17 15 20 21 21 21 21 21 24 26 25 30 28 28 25 24 21 12 18 20 22 22 22 21 25 26 25 25 22 22
10 13 13 11 6 7 10 13 13 6 12 12 19 20 13 15 11 14 16 14 17 14 18 20 23 23 24 21 18 19 24 25 20 23 23 19 18 18 20 19 19 19 19 20
13 8 11 14 15 14 15 18 14 18 12 15 18 13 12 14 13 7 8 8 17 18 16 19 21 21 21 21 21 22 22 23 24 26 27 27 25 18 17 18 19 18 18 18
14 16 16 17 13 9 16 17 12 13 16 18 17 15 17 17 11 16 15 16 19 16 17 18 19 18 18 18 21 21 21 22 25 24 26 26 25 25 21 17 17 17 15 12

GFSNGP_925_spd_036.txt.gz
Wind_Speed
18 24 21 20 6 19 14 14 15 12 7 10 11 12 6 7 9 16 25 29 27 25 23 21 32 35 34 36 37 39 37 37 37 37 37 38 37 40 38 36 41 43 40 43
11 12 15 11 7 7 18 15 7 8 9 6 6 11 7 7 13 17 24 28 29 28 25 22 30 34 35 36 38 39 39 39 37 36 37 37 38 36 38 38 40 37 42 41
6 9 7 2 10 7 14 8 13 6 9 5 9 9 12 6 14 10 13 26 26 26 25 23 34 37 35 39 36 37 37 35 36 36 35 37 37 35 34 37 37 39 38 39
5 9 7 7 20 14 20 19 21 14 10 13 15 14 17 16 11 17 14 12 8 9 10 19 25 29 28 29 35 36 33 33 33 33 34 33 33 33 33 33 34 37 37 39
2 4 1 13 16 15 4 13 20 17 10 17 16 24 16 16 13 7 8 7 8 14 15 23 30 32 32 31 32 31 32 34 34 37 35 34 33 33 34 32 33 34 35 36
4 2 5 11 24 21 8 14 21 19 18 10 3 13 4 10 14 11 8 7 8 17 23 24 11 26 27 29 29 32 33 35 33 34 37 35 36 35 36 36 34 33 33 34
1 4 5 20 29 14 9 3 12 13 15 17 15 6 1 11 16 14 14 14 16 23 18 14 15 15 18 19 26 35 33 34 35 40 40 38 35 34 32 32 32 31 31 31
5 5 4 19 13 13 10 6 12 13 10 13 12 15 13 14 15 16 16 17 22 20 22 25 18 19 18 11 5 20 19 30 34 35 34 31 34 33 33 31 29 28 26 25
4 3 4 4 6 13 16 13 5 6 7 7 13 14 15 11 13 12 13 17 21 17 17 25 28 24 22 17 13 3 8 24 29 31 32 33 34 31 27 28 26 24 23 22
3 6 9 8 9 15 16 17 15 12 6 5 8 10 11 12 11 11 11 13 16 18 14 14 19 20 18 16 16 14 6 7 11 20 26 31 30 29 25 23 22 20 20 19
4 5 5 7 9 13 20 18 16 12 12 8 8 7 8 8 9 10 13 18 22 17 14 13 15 16 15 14 13 13 12 8 11 14 20 23 20 20 23 25 28 26 27 26
4 9 7 16 8 13 16 19 16 13 12 12 10 10 11 10 8 11 14 20 18 18 14 12 14 14 15 15 14 12 11 7 7 11 15 21 18 11 10 19 22 23 21 19
10 9 11 17 20 15 14 17 11 15 7 7 8 7 7 5 12 17 18 18 16 16 12 7 9 9 13 9 12 12 11 10 7 11 17 19 20 24 23 28 22 20 18 16
12 11 12 14 9 7 13 7 7 17 14 5 7 10 7 5 10 15 15 22 24 18 9 4 5 6 8 9 10 9 5 5 4 10 13 17 24 24 26 24 19 22 19 18
13 9 12 15 16 10 7 9 4 5 9 7 7 7 8 7 6 11 19 22 21 14 6 3 4 7 8 6 7 8 10 16 19 19 20 17 21 20 19 21 20 21 18 16
17 12 13 11 8 11 10 11 7 8 6 5 4 5 8 7 8 10 8 8 7 7 13 12 9 10 5 6 10 16 19 18 22 23 24 25 26 26 22 22 20 19 20 15
14 17 11 7 5 8 9 6 6 4 2 2 2 6 5 7 1 4 5 4 8 14 14 12 9 5 2 11 15 22 23 23 25 28 27 26 25 25 23 21 18 18 21 18
17 17 17 14 5 1 2 5 6 8 5 1 3 6 2 4 5 4 7 6 4 16 19 14 8 4 12 19 21 23 25 25 26 24 25 26 25 24 23 22 19 17 17 20
19 17 23 24 23 15 13 12 13 15 14 11 12 11 12 12 10 11 11 17 15 14 20 16 10 16 16 23 28 29 26 26 25 24 26 26 25 22 22 21 20 21 21 22
14 21 26 27 33 31 20 24 22 23 22 20 19 19 17 17 12 12 16 20 15 9 14 18 21 21 17 13 21 32 27 25 26 24 25 25 25 25 25 25 23 23 24 24
8 13 16 20 22 27 28 28 24 23 24 25 23 20 18 20 20 16 16 13 20 15 22 30 31 30 19 15 15 20 28 24 27 28 26 25 27 26 25 24 23 23 24 24
3 6 9 12 16 18 22 25 25 25 27 28 26 23 23 23 18 21 19 18 22 24 30 30 31 37 34 32 22 23 22 28 29 28 26 27 28 27 26 26 25 25 26 25
8 6 6 4 6 9 10 12 16 21 20 19 22 24 23 18 19 13 10 26 21 23 36 28 34 37 35 38 29 21 22 27 24 28 29 27 27 28 28 26 23 22 23 22
12 9 7 7 7 5 3 4 1 6 8 6 12 14 13 18 19 19 17 19 16 27 32 26 33 33 33 31 21 22 25 27 27 29 29 27 26 29 29 25 23 20 20 18
6 5 6 6 4 1 3 9 10 8 12 16 13 14 13 7 5 13 18 12 18 21 26 26 27 29 30 29 27 27 25 25 23 24 21 21 23 24 23 22 20 18 17 15
13 15 15 16 6 9 11 14 12 12 15 14 15 8 5 8 12 10 8 13 14 20 23 24 24 26 28 28 27 28 28 30 33 34 30 25 23 24 22 19 17 15 13 13
13 13 15 18 11 8 9 10 12 12 14 15 17 23 25 17 11 12 16 12 10 18 20 21 24 25 24 25 28 28 29 29 29 30 28 27 27 24 20 17 16 14 14 16

GFSNGP_925_spd_042.txt.gz
Wind_Speed
21 21 17 17 16 14 5 7 11 8 17 13 14 10 10 9 8 8 10 14 17 19 18 19 26 29 33 35 37 37 36 35 37 37 37 40 39 40 40 39 38 37 37 37
11 17 18 19 17 17 14 7 8 6 6 3 4 2 1 4 6 11 15 15 17 22 21 20 28 33 35 35 38 39 37 36 36 35 37 39 40 40 39 40 39 38 40 40
6 5 10 8 11 5 7 10 2 8 2 9 2 4 5 8 10 10 11 18 21 22 22 22 33 35 35 37 36 37 35 34 34 35 36 37 39 37 39 39 37 38 40 39
6 4 10 6 4 14 17 15 14 9 13 11 4 7 4 10 12 13 12 10 17 18 19 32 34 35 28 33 36 36 34 33 33 34 34 33 32 35 35 36 36 36 38 39
3 4 9 3 6 5 5 10 18 15 14 10 9 3 3 15 14 12 12 10 7 15 21 27 30 31 31 31 33 33 33 34 35 36 34 32 33 34 34 32 32 36 37 37
2 5 5 4 11 10 6 5 19 18 15 14 8 3 6 18 15 14 13 8 6 17 20 23 25 30 30 29 31 32 34 34 32 34 35 36 36 36 35 32 31 28 32 35
11 5 3 12 13 8 4 2 15 16 12 12 12 5 12 14 15 15 16 16 15 18 17 23 30 29 25 26 29 27 26 29 33 37 37 34 31 31 29 29 26 26 28 31
3 4 4 18 4 7 1 7 10 14 15 10 11 13 15 16 18 19 19 20 23 16 15 16 27 29 23 22 20 25 30 32 34 33 31 29 32 30 29 28 26 26 26 26
4 4 9 8 11 8 9 5 11 13 15 12 13 12 16 16 17 18 20 20 25 19 20 21 20 23 18 8 14 19 27 31 32 31 32 31 31 27 26 28 26 24 23 23
4 7 11 6 3 11 8 10 11 13 14 14 12 13 13 14 14 15 16 18 22 21 20 19 24 24 18 13 13 18 21 24 27 29 29 28 28 27 25 25 24 22 22 20
3 4 9 4 14 11 14 12 12 12 13 14 12 13 11 11 13 12 17 22 21 18 17 17 18 18 16 14 12 15 13 11 15 21 23 24 22 21 21 22 24 22 21 20
1 10 5 8 12 15 15 14 12 11 15 15 14 10 11 11 11 15 16 23 23 22 19 21 18 17 16 14 11 7 8 8 10 15 19 23 23 15 17 18 18 19 17 18
7 12 12 13 13 14 13 15 11 10 7 11 14 12 10 7 15 20 22 23 24 21 22 21 17 18 17 14 13 8 2 2 5 12 16 20 19 18 16 13 14 17 16 14
13 11 8 8 8 14 13 17 16 10 10 7 11 12 14 13 15 15 17 24 27 23 22 19 16 18 18 14 13 10 5 4 4 11 14 19 21 19 19 19 20 21 18 19
16 13 9 12 8 6 9 9 8 9 8 8 10 9 10 8 9 13 18 20 24 23 18 18 16 16 18 14 10 7 7 6 4 9 12 18 21 22 19 21 20 26 28 24
14 16 16 16 11 9 10 7 4 7 6 6 12 14 11 13 14 18 20 21 17 16 25 19 16 16 15 10 6 6 8 8 10 13 16 18 16 17 19 21 19 14 19 23
8 15 12 15 14 15 16 13 6 6 4 6 8 12 16 13 11 14 18 19 19 21 21 20 21 18 16 8 4 2 7 10 14 14 13 13 13 13 15 19 21 22 19 17
11 10 10 10 12 12 13 14 16 17 13 15 15 13 12 11 10 12 14 20 20 21 19 17 21 21 17 9 6 6 9 11 14 16 18 17 16 17 19 22 21 23 22 21
10 11 15 13 12 12 12 14 18 20 20 17 15 14 14 14 13 11 12 11 11 14 20 25 24 20 16 7 9 11 14 15 17 18 19 20 19 17 18 18 21 21 20 19
4 8 10 12 13 15 16 17 16 18 19 19 16 16 17 20 21 18 13 6 15 16 21 22 22 18 10 8 12 13 14 16 16 17 22 20 20 22 21 20 21 21 23 24
1 2 4 8 11 17 18 17 16 16 17 18 15 14 14 18 23 22 22 15 25 29 18 15 15 15 10 17 20 21 20 20 23 19 20 23 23 24 24 23 23 22 24 25
4 1 2 4 4 6 11 14 15 13 13 15 14 15 15 18 21 20 21 24 26 29 25 21 13 6 13 20 24 25 28 27 28 27 26 25 25 24 25 26 26 25 25 26
9 6 4 4 4 4 5 6 4 9 8 10 13 13 16 16 18 18 13 33 31 31 29 29 23 4 10 21 23 26 32 31 29 29 30 28 33 25 24 26 27 23 22 21
4 8 9 8 8 8 10 9 7 6 3 4 7 15 16 15 19 23 26 31 36 33 30 32 28 22 18 22 24 29 31 33 29 30 36 36 36 29 26 25 23 21 20 20
1 3 7 6 5 6 8 5 6 2 6 3 6 10 16 17 18 20 21 22 27 33 33 34 30 33 32 30 25 28 32 30 26 31 30 30 35 29 27 26 22 20 20 19
1 4 5 3 5 5 5 5 5 6 5 6 6 5 3 9 16 21 23 19 24 29 32 34 33 32 37 37 32 32 33 27 26 24 31 26 30 25 25 23 20 17 16 13
3 4 5 6 7 6 6 7 7 8 9 5 2 2 10 7 8 15 17 19 18 16 23 23 30 32 34 33 28 24 26 23 22 26 25 22 19 18 18 17 14 12 11 6

GFSNGP_925_spd_045.txt.gz
Wind_Speed
14 20 24 26 26 26 20 23 22 22 22 24 22 23 19 13 9 4 8 12 17 20 19 22 28 32 34 34 36 38 37 37 38 36 35 33 31 32 32 31 35 36 32 29
18 23 23 28 29 26 23 24 19 17 15 2 9 14 13 11 9 11 11 11 13 19 19 19 29 34 38 38 38 38 37 37 35 34 33 34 33 32 30 32 33 30 29 28
21 17 17 22 30 25 21 17 21 22 15 7 4 3 1 4 8 11 13 13 14 16 19 23 32 36 37 40 38 38 37 34 34 33 34 34 33 32 32 32 29 29 28 28
14 15 11 9 8 26 12 7 2 8 3 7 9 6 7 7 9 13 15 16 17 16 18 30 35 37 32 34 38 37 35 34 33 34 33 32 31 31 31 30 29 29 28 29
5 7 12 11 5 23 16 8 10 6 5 2 5 7 5 11 11 14 16 17 18 25 29 27 31 34 33 33 35 34 33 34 34 34 32 31 31 31 29 27 27 28 27 27
4 7 5 5 4 6 8 6 12 10 11 6 4 8 2 15 16 14 13 13 14 23 25 28 30 34 33 33 35 35 36 36 33 34 33 33 32 31 30 29 28 26 27 28
13 8 9 11 10 7 6 4 8 9 10 14 8 4 8 10 13 12 13 14 4 18 19 25 31 33 30 31 34 34 29 30 31 33 32 31 30 28 27 27 25 26 26 26
8 6 9 17 5 4 5 7 6 9 13 12 12 9 10 13 15 15 15 18 15 9 15 25 31 31 28 27 25 27 28 29 30 30 30 28 28 26 27 26 25 24 24 23
2 1 13 5 14 11 8 7 10 11 14 11 11 13 15 14 15 15 17 17 21 17 19 15 13 17 20 18 25 30 29 29 28 28 27 25 27 26 25 25 24 24 23 22
3 4 12 6 11 13 11 9 9 11 12 15 13 13 12 13 15 16 17 16 23 25 23 22 19 15 11 8 15 24 26 26 27 28 27 26 25 25 25 24 24 23 21 20
4 8 12 12 13 15 14 11 12 12 11 13 15 14 12 13 15 12 17 26 25 22 23 23 22 21 16 12 4 14 20 23 24 24 28 26 24 22 24 22 24 23 21 20
3 12 7 9 14 14 15 14 12 12 14 13 12 14 16 14 16 18 20 26 26 27 24 22 21 20 18 16 11 6 8 10 13 15 20 22 22 17 20 20 23 23 18 16
6 14 9 12 12 12 11 12 11 9 9 11 12 15 15 15 19 21 23 26 27 23 22 20 20 20 20 18 14 13 7 10 8 4 13 11 16 16 11 6 12 17 19 18
14 13 11 15 9 12 12 11 9 8 9 11 14 17 17 16 19 21 22 23 23 21 22 21 20 21 20 18 12 16 7 6 6 9 21 13 13 13 12 11 9 8 12 17
16 16 13 15 16 19 17 11 10 8 8 10 12 12 18 14 14 19 23 24 23 21 22 22 21 21 23 21 18 10 3 6 16 22 18 14 13 13 12 12 12 16 19 18
15 15 15 15 15 16 17 16 14 11 8 7 12 16 15 16 16 17 22 25 24 21 23 21 20 23 24 22 16 10 9 12 8 10 13 13 14 14 14 14 15 13 12 13
15 16 12 15 14 14 15 13 14 11 11 13 17 18 18 17 17 20 19 20 20 20 21 19 20 23 25 22 21 13 10 10 11 9 11 13 15 15 14 14 17 17 14 11
12 14 14 12 13 13 12 14 16 17 15 17 15 17 18 18 13 16 17 17 20 21 18 23 22 24 22 22 21 12 7 6 6 6 8 11 13 16 20 23 22 20 17 17
9 10 14 17 19 20 18 18 18 18 18 17 16 16 16 17 17 17 15 16 19 19 26 25 27 22 18 20 19 9 4 1 4 5 8 15 16 16 20 23 23 19 16 13
4 6 9 12 16 18 17 20 20 20 19 17 16 17 18 19 20 20 20 20 21 21 21 21 23 20 18 14 14 8 5 5 7 9 8 10 13 18 21 23 23 22 20 18
3 3 5 6 7 8 12 14 16 18 17 16 16 14 14 15 17 19 19 14 24 26 21 18 17 18 19 12 8 7 6 7 10 11 13 15 18 16 22 21 21 22 22 22
6 6 5 5 7 9 8 8 10 12 16 18 16 15 14 14 14 13 17 16 21 22 20 22 22 19 16 14 5 7 8 11 8 13 14 15 18 20 24 28 29 27 25 23
8 7 7 6 7 9 10 8 5 6 11 14 18 16 13 13 15 14 11 24 25 26 21 21 21 11 1 7 12 12 11 15 12 13 18 20 22 21 26 29 32 29 26 22
4 4 5 6 6 7 7 5 6 5 6 11 13 14 16 14 16 18 19 21 24 32 27 28 27 25 19 17 20 24 25 23 24 19 24 28 26 20 21 23 25 25 25 21
1 3 3 2 3 6 6 4 6 7 5 5 5 6 10 14 13 13 19 25 25 29 34 33 33 35 34 27 29 27 32 30 32 29 26 33 29 24 29 26 26 24 22 20
1 3 2 2 4 4 4 4 6 8 8 5 4 4 3 8 13 15 15 20 25 25 34 36 39 34 35 36 37 33 38 35 34 38 31 31 31 25 27 23 20 20 16 14
1 2 4 4 5 5 5 6 7 7 7 6 4 1 3 1 7 13 15 15 18 23 26 31 36 39 38 38 37 36 38 35 35 31 29 27 23 18 18 16 11 11 8 8

GFSNGP_925_spd_048.txt.gz
Wind_Speed
17 16 16 18 19 19 20 18 22 21 24 25 19 21 15 8 6 2 7 14 15 17 17 20 27 30 35 37 37 39 38 40 38 38 37 36 33 32 32 30 28 27 27 26
17 16 18 23 23 26 25 25 25 24 29 29 25 20 23 22 17 9 9 7 9 14 17 18 28 31 34 36 38 39 37 40 37 36 36 36 34 33 32 31 29 27 29 28
18 18 20 23 21 27 30 27 27 25 25 27 14 14 19 16 14 10 9 8 9 11 14 20 28 32 35 39 38 39 36 36 36 36 36 36 36 34 33 32 29 29 28 29
14 16 19 22 24 27 31 30 28 26 27 33 9 8 2 2 7 8 8 10 11 11 14 22 26 30 32 33 36 35 34 36 36 35 35 34 34 35 33 32 31 30 29 30
10 12 17 27 24 22 30 30 24 30 30 35 17 13 11 1 4 8 10 12 14 18 22 21 23 28 31 32 35 34 36 36 37 37 35 35 34 33 33 31 29 30 30 30
10 10 15 8 18 29 34 18 17 13 17 23 18 16 9 8 9 10 11 14 17 21 23 25 26 29 31 34 35 36 38 40 38 37 36 35 34 34 33 31 31 30 30 30
15 13 13 14 19 23 9 10 12 4 5 10 17 2 7 9 10 10 12 18 21 21 23 27 27 33 30 33 36 40 35 33 33 34 34 32 31 31 32 32 28 29 28 28
9 9 15 8 16 6 4 11 7 2 7 11 10 9 10 11 11 13 15 16 13 10 16 21 27 30 28 31 28 29 31 32 32 33 32 30 30 29 29 28 28 26 27 26
5 4 4 12 17 11 8 4 3 7 10 11 12 13 11 12 13 13 15 18 19 4 6 12 21 24 23 21 22 26 26 28 30 30 30 27 29 28 27 27 26 26 26 25
3 6 10 10 11 12 3 3 5 8 11 11 13 13 13 15 13 13 16 18 20 17 14 10 11 17 20 22 23 25 25 25 25 25 26 27 26 27 27 27 28 26 25 24
5 5 12 7 12 11 9 8 9 9 11 12 12 14 14 13 12 11 16 23 23 18 16 17 20 18 12 14 21 23 23 22 21 20 22 21 19 16 23 22 24 25 23 22
2 11 5 10 12 12 8 10 9 9 12 12 12 14 12 11 13 14 17 22 23 25 23 22 22 21 18 12 7 18 19 21 20 18 19 17 18 5 7 9 8 19 16 16
8 14 10 14 12 16 13 10 7 9 12 12 11 12 11 11 16 20 22 23 22 21 22 22 24 25 24 16 11 7 14 16 13 14 16 18 16 13 10 13 18 16 17 18
15 14 14 17 13 18 15 11 11 13 13 11 12 11 15 13 16 18 21 22 21 21 22 23 25 26 24 24 14 14 9 20 16 19 22 23 19 12 7 22 19 20 18 19
16 14 11 14 16 17 20 18 16 14 14 14 18 16 15 12 13 16 18 19 21 23 24 24 23 24 25 22 21 14 6 12 15 19 14 9 26 26 28 26 16 8 8 11
16 16 17 18 17 18 19 20 17 16 14 13 14 17 15 14 14 15 18 20 20 19 23 22 21 25 23 22 23 15 13 10 5 7 22 16 10 13 11 15 11 12 11 15
17 19 21 21 18 18 15 13 14 13 14 15 17 15 15 14 14 17 17 18 18 18 17 19 20 24 20 20 19 16 8 9 10 11 18 17 7 11 13 18 16 13 10 13
13 14 14 15 14 16 18 18 20 19 16 16 15 18 20 17 14 16 15 17 16 15 19 21 18 18 17 17 17 13 12 11 13 13 10 11 9 9 9 11 15 17 15 16
10 11 14 16 18 17 18 19 20 20 18 19 20 19 17 18 20 15 13 18 18 20 23 20 23 15 13 14 15 9 10 7 8 8 9 13 12 15 14 13 13 14 15 14
5 8 10 12 13 16 16 20 21 20 20 19 16 17 18 19 17 19 20 17 19 19 20 20 19 15 12 10 13 5 4 5 6 6 6 10 11 13 14 14 12 12 11 13
3 5 8 10 13 14 16 15 17 21 21 20 18 17 16 17 17 19 19 14 21 24 19 17 17 13 11 10 5 2 4 5 9 7 5 9 11 14 14 13 13 13 12 13
4 5 8 9 11 13 12 13 13 15 18 19 18 17 18 19 20 17 19 23 23 25 20 17 16 17 11 7 4 2 4 7 7 9 14 13 8 10 14 14 12 13 14 14
6 7 7 9 10 10 11 12 12 11 13 17 18 20 16 16 19 18 13 26 27 29 27 24 22 13 12 12 11 10 15 14 15 14 21 22 18 12 12 19 18 15 15 15
4 5 8 5 8 11 9 10 11 11 8 8 14 15 19 16 15 20 23 25 28 28 27 29 28 29 28 28 29 28 26 23 18 25 29 33 30 28 16 19 20 20 18 18
4 4 5 4 5 7 7 8 10 11 5 7 6 7 12 12 13 16 23 26 27 30 31 32 35 36 36 35 35 35 35 33 28 31 25 28 35 30 25 23 21 14 16 17
2 7 6 5 8 9 10 10 11 12 9 8 11 9 12 16 12 13 18 25 28 29 32 34 34 37 39 39 39 38 36 35 33 32 31 31 32 28 24 22 17 17 15 14
4 4 3 3 5 8 9 7 10 9 11 10 10 9 8 13 13 15 18 18 23 26 27 27 32 35 36 37 39 39 38 37 33 29 27 26 25 21 16 15 12 14 9 9